CZ-4C R/B, 64754

Orbit data source: Space-Track

CZ-4C R/B, 64754 is space debris in LEO originally from a launch on Thu, 03 Jul 2025 UTC launched from the Xichang Space Center, China (XSC). Debris objects in space refer to the collection of defunct objects orbiting the Earth. Examples of debris include non-operational satellites, rocket bodies, and fragments generated from explosions, collisions, or faulty payload assembly.

Not visible in the next 10 days
Identifier
64754, 2025-145B
Orbit
LEO
Country
Flag of CNCN / PRC
Related business
Manufacturer
SAST
Mission
Spacecraft
Bus & Motor
CZ-4 STAGE 3, Unknown motor
Mass
~1,000 kg wet, ~1,000 kg dry
Launch date (UTC)
2025-07-03 (10 months ago)
Launch vehicle
Unknown
Launch site
Xichang Space Center, China (XSC)
Object type
Payload
Rocket body
Debris
Shape & HBR
Cyl, 2.7 m
Radar Cross Section
14.536 m², Large (>1 m²)

Expand to show TLE details & history
Last TLE update: 11 hours ago

TLE from 11 hours ago
0 CZ-4C R/B
1 64754U 25145B   26133.17909986  .00000681  00000-0  25596-4 0  9993
2 64754  10.9851 101.4366 0121413 195.3398 164.3124 14.56699315 45709
Epoch: 2026-05-13T04:17Z
TLE epoch observation values (Epoch: 2026-05-13T04:17:54.227Z)
Latitude
-0.00001°
Longitude
166.01776°
Altitude
783.803 km
Speed
7.421 km/s
True Right ascension
06h 45m 44s
True Declination
0° 00' 00"
Sunlit
Object was in daylight at epoch
Visualization orbit readout
Latitude
Unknown
Longitude
Unknown
Altitude
Unknown
Speed
Unknown
Apparent Right ascension
Unknown
Apparent Declination
Unknown
Sunlit
N/A
Visualization observer readout
Local Sidereal Time
23:49:22
Azimuth
Unknown
Elevation
Unknown
Doppler factor
Unknown
Orbital elements
Apogee altitude
795.797 km
Perigee altitude
623.685 km
Semi-major axis
7,087.878 km
Eccentricity
0.01214
Inclination
10.9851°
RAAN
101.4366°
Arg. of periapsis
195.3398°
True anomaly
164.68317°
Mean anomaly
164.3124°
Eccentric anomaly
164.49832°
Mean motion
3.63721 °/min
Orbital period
98.98 mins
BSTAR
0.000025596
Loading maneuver chart data...
Computing Atmospheric mass density...
Loading historical data...
Loading historical data...
Loading historical data...
Loading historical data...
Loading historical data...
Loading historical data...
Loading historical data...
Other satellites on launch #145 in the year 2025 (2025-07-03 UTC)

Documentation

Showing up to 5 results
|